Showing default

GREGOIRE, 56946

Orbit data source: Space-Track

GREGOIRE, 56946 is a payload satellite owned by Aerospacelab (BE) in SSO that was launched on Mon, 12 Jun 2023 UTC via an FALCON 9 launch vehicle from the Air Force Western Test Range (AFWTR). Payload-class satellites include a variety of spacecraft equipped with specific instruments for various scientific and technological missions. These include communications satellites like Starlink; space stations such as the ISS; scientific satellites like the Hubble; Earth observation satellites from companies like Planet Labs, Umbra, and HawkEye 360; GPS; miniature CubeSats for education and research; and military/defense satellites.

Loading next visibility...
Identifier
56946, 2023-084Q
Orbit
SSO
Country
Flag of BEBE / BEL
Related business
Manufacturer
Aerospacelab
Mission
Operational Commercial Imaging
Bus & Motor
VSP, Unknown motor
Mass
100 kg wet, 100 kg dry
Launch date (UTC)
2023-06-12 (3 years ago)
Launch vehicle
FALCON 9
Launch site
Air Force Western Test Range (AFWTR)
Object type
Payload
Rocket body
Debris
Shape & HBR
Box + 2 Pan, 1.0 m
Radar Cross Section
0.963 m², Medium (>0.1 m² and < 1m²)

Expand to show TLE details & history
Last TLE update: 15 hours ago

TLE from 15 hours ago
0 GREGOIRE
1 56946U 23084Q   26107.17047501  .00006186  00000-0  17532-3 0  9990
2 56946  97.6151 248.7640 0007576 167.0341 193.1099 15.36615609158333
Epoch: 2026-04-17T04:05Z
TLE epoch observation values (Epoch: 2026-04-17T04:05:29.040Z)
Latitude
-0.00002°
Longitude
-17.91451°
Altitude
464.277 km
Speed
7.632 km/s
True Right ascension
16h 35m 03s
True Declination
0° 00' 00"
Sunlit
Object was in full shadow at epoch
Visualization orbit readout
Latitude
Unknown
Longitude
Unknown
Altitude
Unknown
Speed
Unknown
Apparent Right ascension
Unknown
Apparent Declination
Unknown
Sunlit
N/A
Visualization observer readout
Local Sidereal Time
02:08:05
Azimuth
Unknown
Elevation
Unknown
Doppler factor
Unknown
Orbital elements
Apogee altitude
458.254 km
Perigee altitude
447.903 km
Semi-major axis
6,831.216 km
Eccentricity
0.00076
Inclination
97.6151°
RAAN
248.764°
Arg. of periapsis
167.0341°
True anomaly
193.09023°
Mean anomaly
193.1099°
Eccentric anomaly
193.10006°
Mean motion
3.84411 °/min
Orbital period
93.65 mins
BSTAR
0.00017532
Loading maneuver chart data...
Computing Atmospheric mass density...

Documentation

Showing up to 5 results
|